KC5EVE-14 Weather Reports


Display with metric or nautical units.
time (UTC)temp
F
wind
direction
speed
MPH
gust
MPH
rain 1hr
in
rain 24hr
in
rain mn
in
humidity
%
barometer
mb
20200330232007 44 335 1.0 0.0 0.00 0.00 0.00 32 1021.3
20200330231552 44 359 2.0 0.0 0.00 0.00 0.00 32 1021.4
20200330231127 46 19 7.0 0.0 0.00 0.00 0.00 31 1021.2
20200330230919 46 30 4.0 0.0 0.00 0.00 0.00 31 1021.3
20200330230501 44 13 1.0 0.0 0.00 0.00 0.00 31 1021.2
20200330230054 43 347 3.0 0.0 0.00 0.00 0.00 30 1021.0
20200330225654 44 6 5.0 0.0 0.00 0.00 0.00 30 1021.0
20200330225249 44 346 1.0 0.0 0.00 0.00 0.00 31 1021.1
20200330224805 44 342 7.0 0.0 0.00 0.00 0.00 28 1021.2
20200330224314 44 7 3.0 0.0 0.00 0.00 0.00 30 1021.1
20200330223844 44 349 6.0 0.0 0.00 0.00 0.00 30 1021.1
20200330223419 43 325 3.0 0.0 0.00 0.00 0.00 32 1021.0
20200330222939 44 5 11.0 0.0 0.00 0.00 0.00 29 1021.0
20200330222518 45 345 4.0 0.0 0.00 0.00 0.00 27 1021.1
20200330222114 47 330 5.0 0.0 0.00 0.00 0.00 30 1021.0
20200330221639 47 285 1.0 0.0 0.00 0.00 0.00 27 1020.8
20200330221215 46 327 0.0 0.0 0.00 0.00 0.00 30 1020.9
20200330220749 46 64 3.0 0.0 0.00 0.00 0.00 30 1021.0
20200330220249 44 341 2.0 0.0 0.00 0.00 0.00 30 1020.9
20200330215829 45 326 8.0 0.0 0.00 0.00 0.00 28 1020.8
20200330215418 46 358 10.0 0.0 0.00 0.00 0.00 27 1021.0
20200330214924 45 349 1.0 0.0 0.00 0.00 0.00 28 1020.9
20200330214442 46 357 8.0 0.0 0.00 0.00 0.00 32 1020.8
20200330214024 45 46 6.0 0.0 0.00 0.00 0.00 30 1020.8
20200330213614 45 353 5.0 0.0 0.00 0.00 0.00 30 1020.9
20200330213144 45 70 3.0 0.0 0.00 0.00 0.00 30 1021.1
20200330212708 45 18 6.0 0.0 0.00 0.00 0.00 34 1020.7
20200330212219 44 55 1.0 0.0 0.00 0.00 0.00 32 1020.7
20200330211809 44 45 8.0 0.0 0.00 0.00 0.00 32 1020.8
20200330211315 45 20 10.0 0.0 0.00 0.00 0.00 29 1020.7
20200330210844 45 359 5.0 0.0 0.00 0.00 0.00 29 1020.8
20200330210354 46 2 2.0 0.0 0.00 0.00 0.00 30 1021.0
20200330205924 46 21 6.0 0.0 0.00 0.00 0.00 30 1020.8
20200330205504 47 31 8.0 0.0 0.00 0.00 0.00 28 1020.8
20200330205004 47 34 0.0 0.0 0.00 0.00 0.00 29 1020.8
20200330204544 48 66 10.0 0.0 0.00 0.00 0.00 32 1020.6
20200330204119 46 170 3.0 0.0 0.00 0.00 0.00 30 1021.0
20200330203714 47 323 5.0 0.0 0.00 0.00 0.00 28 1021.0
20200330203427 49 6 9.0 0.0 0.00 0.00 0.00 29 1021.0
20200330202820 47 61 6.0 0.0 0.00 0.00 0.00 32 1020.9
20200330202349 47 13 8.0 0.0 0.00 0.00 0.00 30 1021.0
20200330201907 47 329 2.0 0.0 0.00 0.00 0.00 33 1021.0
20200330201439 46 21 7.0 0.0 0.00 0.00 0.00 32 1020.6
20200330200951 45 45 3.0 0.0 0.00 0.00 0.00 34 1020.8
20200330200549 45 354 10.0 0.0 0.00 0.00 0.00 32 1020.8
20200330200139 47 44 3.0 0.0 0.00 0.00 0.00 33 1020.8
20200330195740 47 263 5.0 0.0 0.00 0.00 0.00 33 1020.7
20200330195304 45 127 1.0 0.0 0.00 0.00 0.00 35 1020.6
20200330194814 46 32 6.0 0.0 0.00 0.00 0.00 33 1020.8
20200330194354 46 197 3.0 0.0 0.00 0.00 0.00 37 1020.7
20200330193925 44 131 1.0 0.0 0.00 0.00 0.00 37 1020.7
20200330193454 45 66 2.0 0.0 0.00 0.00 0.00 39 1020.9
20200330193004 44 0 0.0 0.0 0.00 0.00 0.00 36 1020.7
20200330192505 47 95 0.0 0.0 0.00 0.00 0.00 39 1020.8
20200330192039 47 104 1.0 0.0 0.00 0.00 0.00 38 1020.8
20200330191624 46 314 2.0 0.0 0.00 0.00 0.00 34 1020.7
20200330191149 47 23 5.0 0.0 0.00 0.00 0.00 33 1020.6
20200330190706 48 337 4.0 0.0 0.00 0.00 0.00 32 1020.8
20200330190207 49 300 8.0 0.0 0.00 0.00 0.00 33 1020.6
20200330185755 49 69 3.0 0.0 0.00 0.00 0.00 39 1020.5
20200330185339 47 327 3.0 0.0 0.00 0.00 0.00 40 1020.5
20200330184939 45 51 3.0 0.0 0.00 0.00 0.00 38 1020.6
20200330184504 47 305 1.0 0.0 0.00 0.00 0.00 34 1020.4
20200330184033 47 275 6.0 0.0 0.00 0.00 0.00 39 1020.5
20200330183554 47 325 2.0 0.0 0.00 0.00 0.00 40 1020.5
20200330183104 47 274 3.0 0.0 0.00 0.00 0.00 41 1020.5
20200330182639 46 247 6.0 0.0 0.00 0.00 0.00 48 1020.8
20200330182225 45 240 0.0 0.0 0.00 0.00 0.00 54 1020.4
20200330181729 44 139 0.0 0.0 0.00 0.00 0.00 54 1020.7
20200330181234 46 139 0.0 0.0 0.00 0.00 0.00 50 1020.5
20200330180734 47 139 0.0 0.0 0.00 0.00 0.00 50 1020.6
20200330180319 48 139 1.0 0.0 0.00 0.00 0.00 51 1020.5
20200330175849 46 139 2.0 0.0 0.00 0.00 0.00 55 1020.5
20200330175426 44 138 3.0 0.0 0.00 0.00 0.00 57 1020.3
20200330175010 42 138 3.0 0.0 0.00 0.00 0.00 56 1020.5
20200330174604 42 138 1.0 0.0 0.00 0.00 0.00 53 1020.5
20200330174154 44 138 0.0 0.0 0.00 0.00 0.00 52 1020.3
20200330173749 45 138 3.0 0.0 0.00 0.00 0.00 53 1020.4
20200330173344 44 138 2.0 0.0 0.00 0.00 0.00 55 1020.4
20200330172909 44 135 2.0 0.0 0.00 0.00 0.00 56 1020.5
20200330172429 42 135 2.0 0.0 0.00 0.00 0.00 57 1020.6
20200330172003 42 135 3.0 0.0 0.00 0.00 0.00 58 1020.5
20200330171544 42 135 4.0 0.0 0.00 0.00 0.00 57 1020.5
20200330171125 43 126 3.0 0.0 0.00 0.00 0.00 57 1020.3
20200330170648 43 121 5.0 0.0 0.00 0.00 0.00 57 1020.3
20200330170158 43 118 1.0 0.0 0.00 0.00 0.00 57 1020.4
20200330165748 42 106 4.0 0.0 0.00 0.00 0.00 60 1020.3
20200330165248 40 147 7.0 0.0 0.00 0.00 0.00 63 1020.3
20200330164759 38 167 4.0 0.0 0.00 0.00 0.00 66 1020.3
20200330164354 36 169 1.0 0.0 0.00 0.00 0.00 70 1020.3
20200330163901 34 270 2.0 0.0 0.00 0.00 0.00 71 1020.4
20200330163414 33 275 0.0 0.0 0.00 0.00 0.00 71 1020.4
20200330162959 33 275 0.0 0.0 0.00 0.00 0.00 72 1020.4
20200330162623 33 275 0.0 0.0 0.00 0.00 0.00 73 1020.4
20200330162044 33 275 2.0 0.0 0.00 0.00 0.00 74 1020.3
20200330161549 32 275 0.0 0.0 0.00 0.00 0.00 74 1020.2
20200330161054 31 275 0.0 0.0 0.00 0.00 0.00 73 1020.1
20200330160639 32 275 3.0 0.0 0.00 0.00 0.00 70 1020.2
20200330160208 33 259 3.0 0.0 0.00 0.00 0.00 68 1020.1
20200330155708 34 269 4.0 0.0 0.00 0.00 0.00 65 1019.8
20200330155219 35 271 4.0 0.0 0.00 0.00 0.00 60 1019.9
20200330154754 37 248 2.0 0.0 0.00 0.00 0.00 57 1019.9
20200330154354 38 231 3.0 0.0 0.00 0.00 0.00 53 1019.7
20200330153919 39 264 4.0 0.0 0.00 0.00 0.00 50 1019.6
20200330153448 41 196 3.0 0.0 0.00 0.00 0.00 53 1019.6
20200330153034 41 94 3.0 0.0 0.00 0.00 0.00 54 1019.5
20200330152534 40 6 0.0 0.0 0.00 0.00 0.00 58 1019.4
20200330152124 39 6 0.0 0.0 0.00 0.00 0.00 61 1019.4
20200330151624 36 5 0.0 0.0 0.00 0.00 0.00 66 1019.5
20200330151124 34 4 3.0 0.0 0.00 0.00 0.00 68 1019.6
20200330150649 32 2 0.0 0.0 0.00 0.00 0.00 72 1019.4
20200330150228 30 2 0.0 0.0 0.00 0.00 0.00 73 1019.7
20200330145729 29 2 0.0 0.0 0.00 0.00 0.00 73 1019.4
20200330145314 29 2 0.0 0.0 0.00 0.00 0.00 72 1019.4
20200330144819 29 2 1.0 0.0 0.00 0.00 0.00 74 1019.2
20200330144348 29 2 0.0 0.0 0.00 0.00 0.00 73 1019.3
20200330143929 29 5 3.0 0.0 0.00 0.00 0.00 71 1019.3
20200330143439 30 324 2.0 0.0 0.00 0.00 0.00 68 1019.2
20200330143017 30 324 0.0 0.0 0.00 0.00 0.00 66 1019.3
20200330142535 30 324 1.0 0.0 0.00 0.00 0.00 64 1019.2
20200330142134 30 326 3.0 0.0 0.00 0.00 0.00 66 1019.1
20200330141634 30 326 2.0 0.0 0.00 0.00 0.00 65 1019.0
20200330141134 28 325 3.0 0.0 0.00 0.00 0.00 70 1018.9
20200330140648 28 325 3.0 0.0 0.00 0.00 0.00 72 1019.0
20200330140204 27 325 3.0 0.0 0.00 0.00 0.00 73 1018.9
20200330135724 27 329 2.0 0.0 0.00 0.00 0.00 76 1018.8
20200330135324 26 329 2.0 0.0 0.00 0.00 0.00 77 1018.7
20200330134828 26 329 3.0 0.0 0.00 0.00 0.00 78 1018.6
20200330134414 26 0 3.0 0.0 0.00 0.00 0.00 79 1018.7
20200330134011 26 0 3.0 0.0 0.00 0.00 0.00 80 1018.6
20200330133528 26 0 1.0 0.0 0.00 0.00 0.00 81 1018.7
20200330133115 26 0 1.0 0.0 0.00 0.00 0.00 82 1018.7
20200330132659 26 0 3.0 0.0 0.00 0.00 0.00 82 1018.5
20200330132248 26 0 3.0 0.0 0.00 0.00 0.00 82 1018.5
20200330131748 25 0 2.0 0.0 0.00 0.00 0.00 83 1018.6
20200330131304 25 0 2.0 0.0 0.00 0.00 0.00 83 1018.5
20200330130819 25 3 3.0 0.0 0.00 0.00 0.00 82 1018.3
20200330130329 25 13 3.0 0.0 0.00 0.00 0.00 82 1018.3
20200330125928 25 13 3.0 0.0 0.00 0.00 0.00 83 1018.3
20200330125428 25 8 3.0 0.0 0.00 0.00 0.00 83 1018.1
20200330124954 25 8 2.0 0.0 0.00 0.00 0.00 83 1018.2
20200330124549 25 8 3.0 0.0 0.00 0.00 0.00 84 1018.2
20200330124124 25 8 3.0 0.0 0.00 0.00 0.00 84 1018.0
20200330123659 25 8 1.0 0.0 0.00 0.00 0.00 83 1018.2
20200330123219 25 8 0.0 0.0 0.00 0.00 0.00 84 1018.1
20200330122808 25 8 3.0 0.0 0.00 0.00 0.00 84 1018.2
20200330122337 26 8 0.0 0.0 0.00 0.00 0.00 84 1018.0
20200330121914 26 8 3.0 0.0 0.00 0.00 0.00 85 1018.1
20200330121508 26 0 3.0 0.0 0.00 0.00 0.00 85 1018.2
20200330121024 26 0 2.0 0.0 0.00 0.00 0.00 85 1017.9
20200330120539 26 0 3.0 0.0 0.00 0.00 0.00 85 1017.9
20200330120124 26 358 3.0 0.0 0.00 0.00 0.00 85 1018.1
20200330115659 25 4 3.0 0.0 0.00 0.00 0.00 84 1017.9
20200330115208 25 5 3.0 0.0 0.00 0.00 0.00 84 1018.0
20200330114744 26 6 4.0 0.0 0.00 0.00 0.00 84 1017.9
20200330114314 26 6 2.0 0.0 0.00 0.00 0.00 84 1017.9
20200330113909 25 6 3.0 0.0 0.00 0.00 0.00 84 1017.9
20200330113444 26 6 2.0 0.0 0.00 0.00 0.00 83 1017.8
20200330112954 26 6 3.0 0.0 0.00 0.00 0.00 83 1017.8
20200330112528 26 6 1.0 0.0 0.00 0.00 0.00 84 1017.8
20200330112039 26 6 2.0 0.0 0.00 0.00 0.00 84 1017.7
20200330111559 26 6 1.0 0.0 0.00 0.00 0.00 84 1017.8
20200330111128 26 6 0.0 0.0 0.00 0.00 0.00 84 1017.6
20200330110801 26 6 0.0 0.0 0.00 0.00 0.00 84 1017.7
20200330110356 26 6 0.0 0.0 0.00 0.00 0.00 84 1017.7
20200330105914 26 6 0.0 0.0 0.00 0.00 0.00 84 1017.6
20200330105456 26 6 0.0 0.0 0.00 0.00 0.00 84 1017.7
20200330105021 26 6 0.0 0.0 0.00 0.00 0.00 84 1017.6
20200330104551 26 6 0.0 0.0 0.00 0.00 0.00 83 1017.9
20200330103732 26 6 0.0 0.0 0.00 0.00 0.00 83 1017.7
20200330103324 26 6 1.0 0.0 0.00 0.00 0.00 83 1017.7
20200330102924 27 6 0.0 0.0 0.00 0.00 0.00 83 1017.8
20200330102504 27 6 0.0 0.0 0.00 0.00 0.00 83 1017.9
20200330102055 27 6 0.0 0.0 0.00 0.00 0.00 83 1017.8
20200330101601 27 6 0.0 0.0 0.00 0.00 0.00 83 1017.8
20200330101131 27 6 0.0 0.0 0.00 0.00 0.00 83 1017.9
20200330100721 27 6 0.0 0.0 0.00 0.00 0.00 83 1017.7
20200330100250 27 6 0.0 0.0 0.00 0.00 0.00 83 1017.7
20200330095806 28 6 0.0 0.0 0.00 0.00 0.00 83 1017.9
20200330095311 27 6 0.0 0.0 0.00 0.00 0.00 83 1017.8
20200330094831 27 6 0.0 0.0 0.00 0.00 0.00 83 1018.0
20200330094338 27 6 1.0 0.0 0.00 0.00 0.00 83 1017.8
20200330093911 27 6 1.0 0.0 0.00 0.00 0.00 83 1017.7
20200330093410 28 6 1.0 0.0 0.00 0.00 0.00 83 1017.8
20200330092931 28 6 2.0 0.0 0.00 0.00 0.00 82 1017.8
20200330092444 28 6 1.0 0.0 0.00 0.00 0.00 82 1017.9
20200330091057 27 6 1.0 0.0 0.00 0.00 0.00 82 1017.7
20200330090641 27 6 0.0 0.0 0.00 0.00 0.00 83 1017.6
20200330090151 27 6 2.0 0.0 0.00 0.00 0.00 83 1017.7
20200330085746 27 6 2.0 0.0 0.00 0.00 0.00 83 1017.5
20200330085316 27 5 3.0 0.0 0.00 0.00 0.00 83 1017.6
20200330084906 27 11 3.0 0.0 0.00 0.00 0.00 83 1017.9
20200330084501 27 12 3.0 0.0 0.00 0.00 0.00 83 1017.6
20200330084044 27 19 3.0 0.0 0.00 0.00 0.00 83 1017.6
20200330083626 27 0 4.0 0.0 0.00 0.00 0.00 84 1017.7
20200330083216 27 0 3.0 0.0 0.00 0.00 0.00 83 1017.7
20200330082804 27 0 5.0 0.0 0.00 0.00 0.00 83 1017.8
20200330082316 27 1 3.0 0.0 0.00 0.00 0.00 83 1017.9
20200330081859 27 6 3.0 0.0 0.00 0.00 0.00 82 1017.9
20200330081411 27 6 0.0 0.0 0.00 0.00 0.00 82 1018.0
20200330080911 27 6 3.0 0.0 0.00 0.00 0.00 82 1017.9
20200330080424 27 6 2.0 0.0 0.00 0.00 0.00 82 1017.8
20200330080001 28 6 3.0 0.0 0.00 0.00 0.00 82 1017.9
20200330075541 28 6 2.0 0.0 0.00 0.00 0.00 81 1017.8
20200330075121 28 6 0.0 0.0 0.00 0.00 0.00 81 1018.0
20200330074641 28 6 0.0 0.0 0.00 0.00 0.00 81 1018.0
20200330074144 28 6 0.0 0.0 0.00 0.00 0.00 80 1018.0
20200330073656 28 6 3.0 0.0 0.00 0.00 0.00 80 1017.8
20200330073241 28 6 3.0 0.0 0.00 0.00 0.00 80 1018.1
20200330072816 28 6 3.0 0.0 0.00 0.00 0.00 80 1017.8
20200330072407 27 6 3.0 0.0 0.00 0.00 0.00 80 1017.9
20200330071930 27 6 3.0 0.0 0.00 0.00 0.00 80 1017.8
20200330071451 27 6 3.0 0.0 0.00 0.00 0.00 80 1017.8
20200330070955 28 0 2.0 0.0 0.00 0.00 0.00 80 1018.1
20200330070511 28 1 2.0 0.0 0.00 0.00 0.00 80 1017.9
20200330070101 28 1 3.0 0.0 0.00 0.00 0.00 80 1018.2
20200330065702 28 2 1.0 0.0 0.00 0.00 0.00 79 1018.1
20200330065246 28 2 3.0 0.0 0.00 0.00 0.00 78 1018.2
20200330064841 28 2 3.0 0.0 0.00 0.00 0.00 77 1018.2
20200330064424 29 0 3.0 0.0 0.00 0.00 0.00 77 1018.2
20200330063951 29 0 1.0 0.0 0.00 0.00 0.00 76 1017.9
20200330063506 28 0 3.0 0.0 0.00 0.00 0.00 76 1018.1
20200330063046 28 0 3.0 0.0 0.00 0.00 0.00 77 1018.2
20200330062546 28 0 3.0 0.0 0.00 0.00 0.00 78 1017.9
20200330062141 28 0 2.0 0.0 0.00 0.00 0.00 78 1017.9
20200330061656 28 0 3.0 0.0 0.00 0.00 0.00 77 1018.0
20200330061234 28 0 2.0 0.0 0.00 0.00 0.00 78 1018.2
20200330060736 28 0 4.0 0.0 0.00 0.00 0.00 78 1018.3
20200330060321 28 2 4.0 0.0 0.00 0.00 0.00 79 1018.2
20200330055851 28 3 3.0 0.0 0.00 0.00 0.00 78 1018.2
20200330055424 28 4 3.0 0.0 0.00 0.00 0.00 78 1018.1
20200330055016 29 4 5.0 0.0 0.00 0.00 0.00 78 1018.1
20200330054606 29 6 2.0 0.0 0.00 0.00 0.00 77 1018.4
20200330054124 29 6 3.0 0.0 0.00 0.00 0.00 77 1018.2
20200330053721 29 6 1.0 0.0 0.00 0.00 0.00 76 1018.4
20200330053251 29 6 2.0 0.0 0.00 0.00 0.00 76 1018.4
20200330052841 29 7 1.0 0.0 0.00 0.00 0.00 75 1018.4
20200330052416 29 1 2.0 0.0 0.00 0.00 0.00 76 1018.2
20200330052006 29 353 2.0 0.0 0.00 0.00 0.00 77 1018.3
20200330051546 29 353 3.0 0.0 0.00 0.00 0.00 77 1018.5
20200330050701 29 352 0.0 0.0 0.00 0.00 0.00 77 1018.4
20200330050204 29 353 1.0 0.0 0.00 0.00 0.00 77 1018.2
20200330045802 29 352 2.0 0.0 0.00 0.00 0.00 76 1018.4
20200330045415 29 352 2.0 0.0 0.00 0.00 0.00 77 1018.5
20200330044952 29 352 2.0 0.0 0.00 0.00 0.00 78 1018.5
20200330044512 29 352 1.0 0.0 0.00 0.00 0.00 78 1018.6
20200330044052 29 352 1.0 0.0 0.00 0.00 0.00 78 1018.5
20200330043622 29 353 3.0 0.0 0.00 0.00 0.00 78 1018.6
20200330043147 29 330 7.0 0.0 0.00 0.00 0.00 79 1018.5
20200330042656 29 3 3.0 0.0 0.00 0.00 0.00 79 1018.5
20200330042221 29 4 1.0 0.0 0.00 0.00 0.00 78 1018.7
20200330041726 29 4 0.0 0.0 0.00 0.00 0.00 78 1018.7
20200330041247 29 4 0.0 0.0 0.00 0.00 0.00 78 1018.6
20200330040832 29 3 3.0 0.0 0.00 0.00 0.00 79 1018.5
20200330040421 29 1 5.0 0.0 0.00 0.00 0.00 79 1018.6
20200330035952 29 354 3.0 0.0 0.00 0.00 0.00 79 1018.8
20200330035456 29 1 1.0 0.0 0.00 0.00 0.00 80 1018.7
20200330035021 29 1 0.0 0.0 0.00 0.00 0.00 80 1018.6
20200330034548 29 1 2.0 0.0 0.00 0.00 0.00 80 1018.6
20200330034131 29 1 2.0 0.0 0.00 0.00 0.00 80 1018.8
20200330033716 29 2 1.0 0.0 0.00 0.00 0.00 80 1018.7
20200330033231 29 1 0.0 0.0 0.00 0.00 0.00 80 1018.7
20200330032732 29 1 2.0 0.0 0.00 0.00 0.00 80 1019.0
20200330032236 29 1 3.0 0.0 0.00 0.00 0.00 80 1018.9
20200330031747 28 0 5.0 0.0 0.00 0.00 0.00 79 1018.8
20200330031247 29 0 3.0 0.0 0.00 0.00 0.00 78 1018.5
20200330030806 29 5 3.0 0.0 0.00 0.00 0.00 78 1018.7
20200330030342 29 15 3.0 0.0 0.00 0.00 0.00 77 1018.6
20200330025940 29 19 2.0 0.0 0.00 0.00 0.00 77 1018.8
20200330025511 29 19 3.0 0.0 0.00 0.00 0.00 77 1018.7
20200330025016 29 130 3.0 0.0 0.00 0.00 0.00 76 1018.9
20200330024611 29 132 3.0 0.0 0.00 0.00 0.00 75 1018.7
20200330024142 29 132 0.0 0.0 0.00 0.00 0.00 75 1018.7
20200330023641 30 132 0.0 0.0 0.00 0.00 0.00 75 1018.7
20200330023232 30 132 0.0 0.0 0.00 0.00 0.00 74 1018.7
20200330022811 30 132 1.0 0.0 0.00 0.00 0.00 74 1018.9
20200330022321 31 132 3.0 0.0 0.00 0.00 0.00 72 1018.8
20200330021909 31 132 0.0 0.0 0.00 0.00 0.00 71 1018.8
20200330021509 32 132 0.0 0.0 0.00 0.00 0.00 69 1018.8
20200330021050 32 132 0.0 0.0 0.00 0.00 0.00 67 1019.0
20200330020632 33 132 0.0 0.0 0.00 0.00 0.00 66 1018.9
20200330020156 33 132 0.0 0.0 0.00 0.00 0.00 66 1019.2
20200330015734 32 132 2.0 0.0 0.00 0.00 0.00 66 1019.0
20200330015240 32 132 2.0 0.0 0.00 0.00 0.00 66 1018.9
20200330014801 32 127 0.0 0.0 0.00 0.00 0.00 66 1018.8
20200330014327 32 128 1.0 0.0 0.00 0.00 0.00 66 1018.8
20200330013901 32 128 3.0 0.0 0.00 0.00 0.00 65 1018.8
20200330013447 32 127 2.0 0.0 0.00 0.00 0.00 65 1018.6
20200330013026 33 127 2.0 0.0 0.00 0.00 0.00 65 1018.7
20200330012526 33 127 2.0 0.0 0.00 0.00 0.00 62 1018.6
20200330012114 34 127 1.0 0.0 0.00 0.00 0.00 59 1018.6
20200330011627 34 127 2.0 0.0 0.00 0.00 0.00 59 1018.6
20200330011146 35 127 0.0 0.0 0.00 0.00 0.00 56 1018.4
20200330010742 36 127 0.0 0.0 0.00 0.00 0.00 57 1018.5
20200330010341 36 127 1.0 0.0 0.00 0.00 0.00 56 1018.5
20200330005922 36 127 2.0 0.0 0.00 0.00 0.00 55 1018.6
20200330005452 36 122 4.0 0.0 0.00 0.00 0.00 54 1018.4
20200330005017 37 117 4.0 0.0 0.00 0.00 0.00 49 1018.7
20200330004537 38 149 5.0 0.0 0.00 0.00 0.00 45 1018.5
20200330004137 38 180 6.0 0.0 0.00 0.00 0.00 44 1018.3
20200330003727 39 153 11.0 0.0 0.00 0.00 0.00 43 1018.5
20200330003322 39 187 5.0 0.0 0.00 0.00 0.00 42 1018.5
20200330002907 40 109 3.0 0.0 0.00 0.00 0.00 41 1018.4
20200330002427 40 148 1.0 0.0 0.00 0.00 0.00 43 1018.3
20200330001942 39 178 1.0 0.0 0.00 0.00 0.00 43 1018.4
20200330001506 39 178 2.0 0.0 0.00 0.00 0.00 41 1018.4
20200330001021 39 178 2.0 0.0 0.00 0.00 0.00 41 1018.4
20200330000522 40 178 1.0 0.0 0.00 0.00 0.00 40 1018.3
20200330000052 41 178 2.0 0.0 0.00 0.00 0.00 40 1018.3
20200329235607 40 178 0.0 0.0 0.00 0.00 0.00 40 1018.3
20200329235139 41 178 0.0 0.0 0.00 0.00 0.00 39 1018.5
20200329234707 43 178 0.0 0.0 0.00 0.00 0.00 37 1018.4
20200329234301 44 169 3.0 0.0 0.00 0.00 0.00 37 1018.5
20200329233812 46 169 1.0 0.0 0.00 0.00 0.00 36 1018.4
20200329233407 46 169 0.0 0.0 0.00 0.00 0.00 36 1018.5
20200329232927 47 169 1.0 0.0 0.00 0.00 0.00 35 1018.7
20200329232517 46 169 0.0 0.0 0.00 0.00 0.00 36 1018.6